Location: Peebles
(55.6412°N, 3.1714°W)
Time: 18:29:14
(UTC+00:00)

Altair 2 - Visible Passes

Search period start: 28 November 2022 00:00
Search period end: 08 December 2022 00:00
Orbit: 702 x 2528 km, 96.4° (Epoch: 27 November)

Date Brightness Start Highest point End Pass type
(mag) Time Alt. Az. Time Alt. Az. Time Alt. Az.
28 Nov 10.6 01:06:55 35° NNW 01:06:55 35° NNW 01:12:34 10° NNW visible
28 Nov 11.1 03:05:32 17° NW 03:05:32 17° NW 03:09:03 10° NNW visible
28 Nov 10.9 17:01:12 10° NNE 17:06:19 15° NNW 17:10:45 10° NW visible
28 Nov 11.0 18:54:29 11° NE 18:59:03 15° NNE 19:03:59 10° NNW visible
28 Nov 10.7 20:53:06 27° NE 20:53:06 27° NE 21:00:47 10° N visible
28 Nov 10.3 22:51:43 43° N 22:51:43 43° N 22:58:22 10° N visible
29 Nov 10.5 00:50:20 36° NNW 00:50:20 36° NNW 00:55:52 10° NNW visible
29 Nov 11.0 02:48:57 18° NW 02:48:57 18° NW 02:52:35 10° NNW visible
29 Nov 10.8 16:45:00 10° NNE 16:50:10 15° NNW 16:54:39 10° NW visible
29 Nov 11.0 18:38:05 10° NE 18:42:59 14° N 18:47:21 10° NNW visible
29 Nov 10.7 20:36:31 24° NE 20:36:31 24° NE 20:44:02 10° N visible
29 Nov 10.4 22:35:08 40° NNE 22:35:08 40° NNE 22:41:37 10° N visible
30 Nov 10.5 00:33:45 37° NNW 00:33:45 37° NNW 00:39:10 10° NNW visible
30 Nov 11.0 02:32:22 20° NW 02:32:22 20° NW 02:36:03 10° NNW visible
30 Nov 10.7 16:28:43 10° N 16:34:01 16° NNW 16:38:32 10° NW visible
30 Nov 11.0 18:22:38 10° NNE 18:26:54 13° N 18:30:45 10° NNW visible
30 Nov 10.8 20:19:55 22° NE 20:20:03 22° NE 20:27:15 10° N visible
30 Nov 10.4 22:18:33 38° NNE 22:18:33 38° NNE 22:24:50 10° N visible
01 Dec 10.5 00:17:09 37° NNW 00:17:09 37° NNW 00:22:27 10° NNW visible
01 Dec 10.9 02:15:46 21° NW 02:15:46 21° NW 02:19:29 10° NNW visible
01 Dec 11.0 18:07:07 10° NNE 18:10:49 12° N 18:14:11 10° NNW visible
01 Dec 10.8 20:03:19 20° NE 20:03:53 20° NNE 20:10:28 10° N visible
01 Dec 10.4 22:01:56 35° NNE 22:01:56 35° NNE 22:08:04 10° N visible
02 Dec 10.5 00:00:33 37° NNW 00:00:33 37° NNW 00:05:43 10° NNW visible
02 Dec 10.9 01:59:10 22° NW 01:59:10 22° NW 02:02:52 10° NNW visible
02 Dec 11.0 17:51:30 10° NNE 17:54:43 12° N 17:57:39 10° NNW visible
02 Dec 10.8 19:46:42 18° NE 19:47:44 18° NNE 19:53:39 10° N visible
02 Dec 10.5 21:45:20 33° NNE 21:45:20 33° NNE 21:51:16 10° N visible
02 Dec 10.4 23:43:57 37° N 23:43:57 37° N 23:48:57 10° NNW visible
03 Dec 10.8 01:42:33 23° NNW 01:42:33 23° NNW 01:46:13 10° NNW visible
03 Dec 10.9 17:35:46 10° NNE 17:38:35 12° N 17:41:13 10° NNW visible
03 Dec 10.9 19:30:05 16° NE 19:31:35 16° NNE 19:36:49 10° N visible
03 Dec 10.5 21:28:42 30° NNE 21:28:42 30° NNE 21:34:28 10° N visible
03 Dec 10.4 23:27:19 36° N 23:27:19 36° N 23:32:12 10° N visible
04 Dec 10.8 01:25:57 24° NNW 01:25:57 24° NNW 01:29:32 10° NNW visible
04 Dec 11.2 03:24:33 10° NW 03:24:33 10° NW 03:24:53 10° NNW visible
04 Dec 10.9 17:19:53 10° N 17:22:28 11° N 17:24:52 10° NNW visible
04 Dec 10.9 19:13:28 14° NE 19:15:26 15° NNE 19:19:57 10° N visible
04 Dec 10.5 21:12:05 28° NNE 21:12:05 28° NNE 21:17:38 10° N visible
04 Dec 10.4 23:10:42 35° N 23:10:42 35° N 23:15:25 10° N visible
05 Dec 10.8 01:09:19 25° NNW 01:09:19 25° NNW 01:12:51 10° NNW visible
05 Dec 11.2 03:07:55 11° NW 03:07:55 11° NW 03:08:42 10° NNW visible
05 Dec 10.8 17:03:48 10° N 17:06:19 11° N 17:08:38 10° NNW visible
05 Dec 10.9 18:56:49 12° NNE 18:59:17 13° NNE 19:03:02 10° N visible
05 Dec 10.6 20:55:26 25° NNE 20:55:26 25° NNE 21:00:48 10° N visible
05 Dec 10.4 22:54:03 34° N 22:54:03 34° N 22:58:36 10° N visible
06 Dec 10.7 00:52:40 26° NNW 00:52:40 26° NNW 00:56:08 10° NNW visible
06 Dec 11.1 02:51:17 12° NNW 02:51:17 12° NNW 02:52:21 10° NNW visible
06 Dec 10.7 16:47:34 10° N 16:50:08 12° NNW 16:52:30 10° NNW visible
06 Dec 10.9 18:40:11 10° NNE 18:43:08 12° NNE 18:46:03 10° N visible
06 Dec 10.6 20:38:48 23° NNE 20:38:48 23° NNE 20:43:55 10° N visible
06 Dec 10.4 22:37:24 32° N 22:37:24 32° N 22:41:48 10° N visible
07 Dec 10.7 00:36:01 26° NNW 00:36:01 26° NNW 00:39:23 10° NNW visible
07 Dec 11.1 02:34:38 13° NNW 02:34:38 13° NNW 02:35:54 10° NNW visible
07 Dec 10.7 16:31:10 10° N 16:33:55 12° NNW 16:36:27 10° NW visible
07 Dec 10.9 18:24:58 10° NNE 18:27:00 11° NNE 18:28:55 10° N visible
07 Dec 10.6 20:22:08 21° NNE 20:22:08 21° NNE 20:27:02 10° N visible
07 Dec 10.5 22:20:45 31° N 22:20:45 31° N 22:24:58 10° N visible
